Wind_Speed
4 3 3 4 4 4 5 6 6 6 6 6 6 6 6 6 6 5 5 5 4 4 4 4 4 4 3 3 2 2 2 2 2 2 2 2 2 2 2 2 2 2 2
3 3 3 3 3 4 4 5 5 5 5 5 5 5 5 5 5 5 4 4 4 3 4 4 3 4 4 3 3 3 3 3 2 2 3 3 3 3 3 3 3 3 3
2 2 2 2 2 3 3 3 3 4 4 4 5 4 4 4 4 4 4 3 3 3 3 3 3 4 4 4 4 3 4 3 4 4 4 3 4 4 4 4 4 4 4
1 1 1 1 2 2 2 2 2 3 3 3 3 3 3 3 3 3 3 3 4 4 3 3 4 4 4 5 5 4 4 5 5 5 5 5 4 4 5 4 4 5 5
1 1 1 1 1 1 2 2 2 2 2 2 2 2 2 2 3 3 3 4 4 4 4 4 4 5 5 6 6 5 5 6 6 5 5 5 5 5 5 5 5 5 5
1 1 1 1 0 0 1 1 1 1 0 1 1 1 1 1 2 3 3 3 4 4 4 4 5 5 6 6 7 6 6 6 6 5 5 6 6 6 6 6 6 6 6
2 1 2 2 1 1 1 1 2 1 1 1 2 2 1 1 1 2 3 3 3 4 4 5 5 6 6 7 7 7 7 7 6 6 6 5 6 6 6 6 6 6 7
3 3 3 4 3 3 2 2 2 2 2 2 3 3 2 2 2 2 2 3 4 4 5 5 6 7 7 7 7 7 7 7 6 6 6 6 6 6 6 6 6 6 7
4 4 4 4 4 4 4 3 3 3 3 4 4 3 3 3 3 3 3 3 4 5 5 6 7 7 8 8 8 7 8 7 7 7 6 6 6 6 6 6 7 7 7
5 5 5 5 5 5 5 4 4 4 4 5 5 5 5 5 4 4 5 5 6 6 7 7 8 8 8 8 8 8 8 7 7 7 6 7 7 7 7 7 7 8 8
7 7 6 5 6 5 5 5 5 5 6 6 5 6 6 6 6 6 6 6 7 8 8 8 8 8 8 9 9 8 8 7 7 7 7 7 7 8 8 8 8 8 9
9 8 7 7 6 7 7 7 7 6 6 7 7 7 7 6 6 6 7 8 8 9 9 8 8 8 8 9 9 8 8 8 8 8 7 7 8 8 9 8 8 8 9
11 10 10 9 8 8 8 8 8 8 8 8 8 8 7 7 7 8 8 9 9 9 9 9 8 8 8 8 8 8 8 8 8 8 7 8 8 9 9 9 9 9 9
12 12 11 10 10 10 9 9 9 9 9 9 9 8 8 8 9 8 9 10 9 9 9 9 9 9 8 8 8 8 9 8 8 8 8 9 9 9 9 9 9 10 10
12 12 12 11 11 11 11 11 11 10 10 10 10 9 8 8 8 9 9 9 10 9 9 9 9 9 9 8 8 8 9 9 9 9 9 9 9 9 9 10 10 10 11
13 12 12 12 12 12 12 12 12 11 11 11 10 9 9 8 9 9 9 9 9 9 8 9 9 8 8 8 8 9 9 9 9 9 10 10 9 9 9 10 10 10 11
13 14 14 13 13 14 13 13 13 12 11 11 10 10 9 9 9 9 8 9 9 9 9 9 9 9 9 9 9 10 10 10 10 10 10 10 10 10 10 10 10 10 11
14 14 14 14 14 14 14 14 14 13 12 12 11 11 10 10 10 9 9 9 9 9 9 9 9 9 9 10 10 10 10 11 10 11 11 11 10 10 11 11 11 10 10
14 14 14 14 15 14 14 14 14 13 13 13 12 12 12 11 11 10 10 10 10 9 10 10 10 10 10 9 10 11 11 10 10 11 11 11 11 10 11 11 11 11 11
14 14 14 14 14 14 14 14 14 14 13 13 12 12 12 12 12 11 11 11 11 10 11 11 10 10 10 9 10 11 11 11 11 11 11 11 11 10 10 11 11 11 11
13 14 15 15 14 14 14 14 14 14 14 13 13 13 13 12 12 12 11 11 11 11 11 11 10 10 10 10 10 11 11 11 11 11 10 11 11 11 10 11 11 11 11
15 15 15 16 15 15 15 15 14 14 14 14 14 13 13 13 13 12 12 11 11 11 11 10 9 9 10 11 11 11 11 11 11 11 11 11 11 10 10 11 10 10 10
15 16 16 15 15 15 15 15 14 14 13 13 13 14 14 13 13 13 13 12 11 11 11 10 10 10 10 11 11 11 10 11 11 11 11 11 11 10 10 10 10 10 10
14 15 15 15 15 15 14 14 13 13 13 13 13 13 13 13 13 13 13 12 12 11 12 11 11 11 10 10 10 10 10 11 11 11 11 11 11 11 11 11 10 10 10
14 15 15 14 14 14 14 13 13 13 13 13 13 13 12 13 13 13 13 13 12 12 13 12 12 12 11 11 11 11 11 12 11 12 11 11 11 12 12 12 12 11 11
14 14 13 14 14 14 14 14 14 13 14 14 14 14 13 13 13 13 13 13 13 13 14 13 12 12 12 11 11 12 12 12 12 12 12 12 12 12 13 13 12 12 12
Wind_Direction
44 45 53 60 72 83 85 83 79 76 71 69 71 70 66 62 61 60 58 55 54 53 44 37 39 32 29 27 18 7 356 349 336 321 314 306 304 306 322 310 297 277 257
44 45 49 57 74 89 88 83 77 74 67 67 71 69 64 60 59 58 59 53 50 48 40 35 29 25 24 14 357 344 338 332 325 312 304 297 294 296 297 296 294 287 276
36 44 34 43 62 77 85 87 78 72 68 68 68 62 55 54 52 50 45 43 38 32 29 22 18 16 12 5 350 334 323 320 321 309 296 287 286 286 287 285 289 290 282
339 357 23 33 35 71 77 88 86 74 63 67 60 58 50 44 41 36 31 27 24 23 14 7 360 360 356 354 347 338 325 317 316 306 296 291 285 284 281 281 285 286 281
340 331 358 5 9 55 76 92 92 75 61 57 44 43 35 23 21 20 14 15 13 11 6 359 356 352 347 346 343 337 330 321 316 311 299 290 285 283 280 280 282 281 280
323 340 305 279 290 112 71 36 23 19 16 6 341 342 354 355 1 358 2 5 6 1 358 357 345 337 335 336 334 330 326 322 320 318 308 294 289 285 281 277 277 276 276
270 282 269 256 262 278 281 297 294 294 316 305 297 291 300 324 346 352 352 353 354 351 347 347 335 328 329 330 328 325 325 322 319 316 310 300 294 289 285 278 278 276 272
270 275 269 247 243 244 255 272 281 282 290 291 283 279 274 279 309 328 328 331 336 338 333 330 327 325 324 327 327 325 323 318 312 308 305 302 296 292 287 284 280 277 275
267 271 265 254 249 241 246 259 267 273 275 275 277 284 279 268 276 288 299 306 313 320 323 323 323 323 326 327 325 320 318 317 313 311 307 303 298 293 290 287 283 279 276
268 269 262 258 256 248 246 256 260 264 266 270 270 279 280 272 271 280 286 292 299 306 312 315 318 320 323 324 321 318 316 315 311 310 308 306 301 296 291 289 287 283 277
259 263 267 263 259 255 253 257 259 260 264 266 268 273 278 273 271 278 285 289 296 301 305 310 314 317 320 321 319 319 318 315 312 308 305 304 303 300 295 293 290 286 279
254 256 260 262 258 255 257 259 260 260 262 263 266 270 270 271 273 280 286 288 292 298 299 303 306 311 316 317 315 314 314 313 310 308 306 304 301 299 295 294 294 289 282
255 257 258 258 259 256 258 260 261 262 263 263 265 269 267 268 272 279 284 285 287 293 297 298 300 307 311 313 314 311 311 310 308 307 308 309 307 302 297 295 295 291 286
253 255 254 253 254 256 257 259 260 258 259 263 265 265 267 270 273 277 282 285 286 287 294 295 296 303 307 310 310 308 309 308 308 307 309 311 310 304 300 298 297 293 288
254 254 253 255 255 255 256 255 258 260 259 262 263 262 267 272 273 277 281 285 285 285 289 293 295 300 304 307 306 307 308 308 308 307 307 307 306 303 302 301 298 293 287
249 249 250 252 254 254 254 254 255 259 260 259 256 259 266 269 273 276 276 280 286 288 288 288 290 296 302 303 303 306 306 307 307 305 305 305 303 302 304 303 298 292 287
249 248 247 252 254 254 254 256 254 255 256 255 253 258 263 265 270 276 273 278 284 287 288 287 288 293 297 297 300 303 305 306 305 304 304 305 304 303 305 301 299 296 293
249 250 250 250 256 257 257 256 255 255 255 255 254 258 258 261 267 269 273 280 283 282 284 285 289 291 290 292 297 300 302 303 302 304 304 304 305 306 304 301 299 299 297
249 248 251 253 255 254 255 258 260 257 254 253 255 257 256 260 263 266 274 276 277 279 282 283 286 287 287 289 297 300 300 302 302 304 305 304 305 306 304 302 299 297 297
250 248 250 253 253 252 254 258 257 256 254 255 256 257 256 259 263 268 273 272 275 280 283 282 285 284 286 289 294 296 299 299 300 302 304 305 306 307 305 304 302 299 299
250 249 249 251 252 252 253 254 254 253 250 252 254 255 260 261 264 269 271 273 275 279 284 284 285 286 287 289 291 293 298 299 298 302 304 306 305 306 304 302 303 300 297
249 250 251 250 250 252 252 253 254 252 250 252 254 255 257 259 262 266 269 272 275 278 281 282 284 288 290 292 291 292 295 298 301 302 304 305 305 304 304 304 302 302 298
250 252 253 253 250 249 251 253 255 253 252 253 255 256 256 256 259 261 266 269 271 275 278 280 283 287 289 291 291 292 293 297 297 298 300 301 302 303 304 304 301 298 300
252 252 254 252 250 251 252 252 253 251 252 253 255 258 258 257 258 261 265 267 269 272 275 278 280 282 286 290 292 290 292 296 294 294 296 297 298 300 300 301 301 299 299
257 253 251 250 251 252 252 251 251 251 252 253 255 258 260 261 260 265 268 267 270 274 276 274 276 280 284 288 289 289 292 295 291 292 292 294 296 297 297 298 299 299 299
255 252 250 249 251 250 249 249 250 252 254 253 254 256 258 259 260 263 269 271 272 273 275 273 276 279 283 284 286 287 291 294 290 293 292 291 292 294 296 297 297 297 297
Height
5887 5887 5887 5886 5886 5886 5886 5886 5886 5886 5886 5886 5886 5886 5887 5887 5887 5888 5888 5888 5888 5888 5888 5888 5888 5888 5888 5888 5888 5888 5887 5887 5887 5887 5886 5886 5886 5886 5886 5886 5885 5885 5885
5887 5887 5887 5887 5886 5886 5886 5887 5886 5887 5886 5886 5886 5887 5887 5888 5888 5888 5888 5889 5889 5889 5889 5889 5889 5889 5888 5888 5888 5887 5887 5887 5886 5886 5886 5886 5886 5886 5885 5885 5885 5885 5885
5888 5888 5887 5887 5887 5887 5887 5887 5887 5887 5887 5887 5887 5888 5888 5888 5888 5889 5889 5889 5889 5889 5889 5889 5889 5889 5889 5888 5888 5887 5887 5886 5886 5886 5886 5885 5885 5885 5884 5884 5884 5884 5884
5888 5888 5888 5887 5887 5888 5887 5888 5887 5887 5887 5888 5888 5888 5888 5888 5889 5889 5889 5890 5890 5890 5890 5889 5889 5889 5888 5888 5887 5887 5886 5886 5885 5885 5885 5884 5884 5884 5884 5883 5883 5883 5883
5887 5888 5888 5888 5888 5888 5888 5888 5888 5888 5888 5888 5888 5889 5889 5889 5889 5889 5890 5890 5890 5890 5889 5889 5889 5889 5888 5887 5887 5886 5886 5885 5885 5884 5883 5883 5883 5883 5883 5882 5882 5882 5882
5888 5887 5887 5888 5888 5888 5888 5888 5888 5888 5888 5888 5889 5889 5889 5889 5889 5890 5890 5890 5890 5890 5889 5889 5889 5888 5888 5887 5886 5886 5885 5884 5884 5883 5883 5882 5882 5881 5881 5881 5881 5881 5881
5888 5888 5887 5887 5887 5888 5888 5888 5888 5888 5888 5888 5889 5889 5889 5889 5890 5890 5890 5890 5890 5890 5889 5889 5888 5888 5887 5886 5885 5885 5884 5883 5883 5882 5881 5881 5880 5880 5880 5880 5880 5879 5879
5887 5887 5887 5887 5887 5887 5888 5888 5888 5888 5888 5888 5889 5889 5889 5889 5889 5890 5890 5890 5890 5889 5889 5889 5888 5887 5886 5885 5885 5884 5883 5883 5882 5881 5880 5880 5879 5879 5879 5878 5878 5878 5878
5886 5886 5886 5886 5886 5887 5887 5887 5887 5888 5888 5888 5888 5889 5889 5889 5889 5889 5889 5889 5889 5889 5888 5888 5887 5886 5886 5885 5884 5883 5882 5881 5880 5880 5879 5878 5878 5877 5877 5877 5877 5876 5876
5886 5886 5886 5886 5886 5886 5886 5887 5887 5887 5888 5888 5888 5888 5888 5888 5889 5889 5889 5889 5888 5888 5887 5887 5886 5886 5885 5884 5883 5882 5881 5880 5879 5878 5878 5877 5877 5876 5876 5875 5875 5875 5875
5885 5885 5885 5885 5885 5885 5886 5886 5886 5886 5887 5887 5887 5887 5888 5888 5888 5888 5888 5888 5887 5887 5886 5886 5885 5885 5884 5883 5882 5881 5880 5879 5878 5877 5877 5876 5875 5875 5874 5873 5873 5873 5873
5883 5883 5883 5884 5884 5884 5885 5885 5885 5885 5886 5886 5886 5886 5887 5887 5887 5887 5886 5886 5886 5885 5885 5885 5884 5883 5883 5881 5880 5879 5879 5878 5877 5876 5875 5874 5874 5873 5872 5872 5871 5871 5871
5881 5881 5882 5882 5883 5883 5883 5884 5884 5884 5884 5885 5885 5885 5885 5885 5885 5885 5885 5885 5884 5884 5884 5883 5883 5882 5881 5880 5879 5878 5877 5876 5875 5875 5874 5873 5872 5871 5870 5870 5869 5869 5868
5879 5879 5880 5880 5881 5881 5882 5882 5882 5883 5883 5883 5883 5883 5883 5884 5884 5884 5884 5883 5883 5882 5882 5882 5881 5881 5880 5879 5878 5877 5876 5875 5874 5873 5872 5871 5870 5869 5869 5868 5867 5867 5866
5877 5877 5878 5878 5879 5879 5880 5880 5881 5881 5881 5881 5881 5882 5882 5882 5882 5882 5882 5882 5881 5881 5880 5880 5880 5879 5878 5877 5876 5875 5874 5873 5873 5872 5871 5870 5869 5868 5867 5866 5865 5864 5864
5874 5875 5875 5876 5876 5877 5878 5878 5879 5879 5879 5879 5879 5880 5880 5880 5880 5880 5880 5880 5880 5879 5879 5878 5878 5877 5876 5876 5875 5874 5873 5872 5871 5870 5869 5868 5867 5866 5865 5864 5863 5862 5862
5872 5872 5873 5873 5874 5874 5875 5876 5876 5876 5877 5877 5877 5878 5878 5878 5878 5878 5878 5878 5878 5877 5877 5876 5876 5875 5875 5874 5873 5872 5871 5870 5869 5868 5867 5866 5865 5864 5863 5862 5861 5860 5860
5869 5869 5870 5870 5871 5872 5873 5873 5874 5874 5874 5875 5875 5876 5876 5876 5877 5876 5876 5876 5876 5875 5875 5875 5874 5873 5873 5872 5871 5870 5869 5868 5867 5866 5865 5864 5863 5862 5861 5860 5859 5858 5857
5866 5866 5867 5867 5868 5869 5870 5870 5871 5872 5872 5872 5873 5873 5874 5874 5875 5875 5874 5874 5874 5873 5873 5873 5872 5871 5871 5870 5869 5868 5867 5866 5865 5864 5863 5862 5861 5860 5859 5858 5857 5856 5855
5863 5863 5864 5864 5865 5866 5867 5868 5868 5869 5869 5870 5870 5871 5871 5872 5872 5872 5872 5872 5872 5871 5871 5870 5870 5869 5868 5868 5867 5866 5865 5864 5863 5862 5861 5860 5859 5858 5857 5856 5855 5854 5853
5860 5860 5861 5862 5862 5863 5864 5865 5866 5866 5867 5867 5868 5868 5869 5869 5870 5870 5870 5869 5869 5869 5868 5868 5867 5867 5866 5866 5865 5864 5863 5862 5861 5860 5859 5858 5857 5856 5855 5854 5853 5852 5851
5856 5857 5858 5858 5859 5860 5861 5862 5863 5863 5864 5864 5865 5866 5866 5866 5867 5867 5867 5867 5867 5866 5866 5865 5865 5865 5864 5863 5862 5861 5861 5860 5858 5857 5856 5855 5854 5853 5853 5852 5851 5850 5849
5853 5853 5854 5855 5856 5857 5858 5859 5860 5860 5861 5861 5862 5863 5863 5864 5864 5864 5864 5864 5864 5864 5864 5863 5863 5862 5862 5861 5860 5859 5858 5857 5856 5855 5854 5853 5852 5851 5850 5849 5848 5847 5846
5850 5850 5851 5852 5853 5854 5855 5856 5857 5857 5858 5858 5859 5860 5860 5861 5861 5861 5861 5861 5861 5861 5861 5861 5861 5860 5859 5858 5858 5857 5856 5855 5854 5853 5852 5851 5850 5849 5848 5847 5846 5845 5844
5847 5847 5848 5849 5850 5851 5852 5853 5854 5854 5855 5855 5856 5857 5857 5858 5858 5858 5858 5858 5858 5858 5858 5858 5858 5857 5857 5856 5855 5854 5853 5852 5852 5851 5850 5849 5848 5846 5845 5844 5844 5843 5842
5844 5844 5845 5846 5847 5848 5848 5849 5850 5851 5852 5852 5853 5854 5854 5854 5855 5855 5855 5855 5855 5855 5855 5855 5855 5854 5854 5853 5852 5852 5851 5850 5849 5848 5847 5846 5845 5844 5843 5842 5841 5840 5839